User: anonymous   Login
Location: *
(50.3440°N, 18.6237°E)
Time: 09:05:52
(UTC+00:00)
Language:

Cosmos 2056 Rocket - Orbit

View from above orbital plane
View from above orbital plane
View from above satellite
View from above satellite

Ground track
Ground track

The orbit data is extracted from the following two-line orbital elements,

1 20433U 90004B   21065.64305602  .00000004  00000-0  10190-4 0  9994
2 20433  74.0376  22.0312 0041071 181.7906 351.0437 14.36122579629927
Epoch (UTC): 06 March 2021 15:26:00
Eccentricity: 0.0041071
inclination: 74.0376°
perigee height: 742 km
apogee height: 801 km
right ascension of ascending node: 22.0312°
argument of perigee: 181.7906°
revolutions per day: 14.36122579
mean anomaly at epoch: 351.0437°
orbit number at epoch: 62992

The dashed part of the orbit path shows where the satellite is in the earth's shadow,  

DLR